[Date Prev][Date Next][Thread Prev][Thread Next] - [Date Index][Thread Index][Author Index]
2 Line ISS Keps 6-25
- Subject: [sarex] 2 Line ISS Keps 6-25
- From: "Dave Larsen PhD" <doc@xxxxxxxxxxx>
- Date: Fri, 25 Jun 2004 03:48:30 -0700
ISS
1 25544U 98067A 04177.29610881 .00012405 00000-0 10872-3 0 684
2 25544 51.6337 284.3940 0005436 283.7446 117.3005 15.69298548319590
----
Via the sarex mailing list at AMSAT.ORG courtesy of AMSAT-NA.
To unsubscribe, send "unsubscribe sarex" to Majordomo@amsat.org
AMSAT Home